Wind_Speed
22 23 23 23 24 24 24 23 23 23 23 22 23 22 22 22 23 24 25 26 27 29 29 31 33 34 36 37 38 41 44 46 48 48 50 52 55 58 59 60 58 55
22 22 22 23 23 23 22 22 22 21 21 21 21 21 21 22 22 23 25 25 26 27 27 29 30 31 33 34 36 38 40 44 46 47 47 49 52 53 53 57 56 53
22 22 23 23 22 22 21 21 21 21 21 21 21 22 22 22 23 24 25 26 26 26 27 27 29 30 32 34 35 37 39 42 45 47 47 48 50 50 52 56 56 51
24 23 23 24 23 22 22 22 22 22 23 22 22 23 24 23 24 25 25 27 27 27 27 27 28 29 30 33 35 37 38 39 42 47 49 48 48 51 55 57 53 47
26 25 24 25 25 24 25 25 24 24 24 23 24 25 25 25 25 26 26 28 28 29 28 28 28 29 30 32 34 36 37 38 38 43 49 51 49 48 50 50 47 45
26 26 26 27 27 28 28 28 27 26 25 25 25 26 27 27 27 27 28 29 29 30 29 29 29 29 30 31 32 33 35 36 36 38 45 50 50 48 47 48 49 50
24 26 27 29 29 30 31 30 29 28 27 28 28 28 29 29 29 28 29 30 30 30 30 30 30 30 30 31 32 33 33 34 35 36 41 46 50 51 51 51 51 50
24 24 25 28 30 32 33 33 32 30 30 31 31 30 31 32 31 31 31 31 32 31 31 31 31 31 31 32 33 34 34 34 34 35 38 42 46 49 50 50 49 48
25 24 24 26 29 31 33 34 35 35 35 35 35 34 35 35 35 35 34 34 33 33 32 32 33 33 33 33 34 34 34 35 35 36 37 39 43 46 48 48 48 49
26 26 26 26 27 29 32 34 35 36 37 38 38 38 38 38 38 38 38 37 36 34 34 34 34 34 33 34 34 34 35 35 36 36 36 37 39 42 44 45 47 49
28 28 29 29 28 28 29 31 33 35 35 36 37 38 38 38 39 40 40 40 39 37 36 36 35 34 34 34 34 34 35 35 36 36 35 36 37 39 40 41 43 44
25 27 29 30 30 29 28 28 30 31 33 34 34 35 37 37 38 40 41 42 41 40 39 38 37 36 35 35 35 35 35 36 36 36 36 36 37 37 38 39 40 42
22 23 25 28 29 30 30 30 30 31 32 33 34 35 37 38 39 40 41 42 42 41 41 40 39 37 36 36 36 36 36 36 36 36 36 36 36 36 37 38 39 40
23 24 25 27 28 29 30 31 32 33 34 34 35 37 38 39 40 40 41 43 43 42 42 41 40 39 37 37 37 38 37 36 35 36 36 35 35 36 37 38 38 37
27 27 28 29 30 30 30 31 32 33 34 36 37 38 39 39 40 41 41 43 43 43 42 41 41 41 38 37 38 38 38 37 35 35 35 36 37 37 37 37 38 38
32 31 32 32 32 33 33 33 33 33 34 35 36 38 39 39 40 41 41 42 43 43 42 41 41 41 38 37 38 38 37 37 36 35 35 36 38 38 38 37 37 37
37 37 37 36 36 36 36 36 36 37 37 37 36 37 37 38 39 40 40 40 41 42 43 42 41 40 38 37 37 37 37 37 37 36 36 36 38 38 38 37 37 37
40 41 41 40 39 38 38 38 38 38 39 40 40 39 38 38 38 39 39 39 39 40 42 41 40 38 37 37 37 36 36 36 37 37 36 35 36 37 36 36 36 36
42 44 45 45 43 42 41 40 39 39 38 39 40 41 41 41 40 38 37 37 37 39 40 40 39 38 36 36 35 35 35 35 36 36 35 34 34 34 35 35 34 35
42 44 46 46 45 44 43 43 42 41 39 38 38 39 41 42 41 40 38 36 36 37 38 39 38 37 35 34 34 34 34 34 35 35 34 34 34 34 34 34 34 35
39 41 43 44 44 43 43 43 43 42 41 39 38 39 40 41 41 41 40 37 36 36 37 39 38 36 34 33 33 33 32 32 34 33 32 32 33 33 33 34 34 36
38 39 40 41 42 42 42 42 42 42 42 40 39 39 39 40 40 40 39 38 36 36 37 38 37 35 33 32 32 31 31 31 31 31 31 31 32 32 32 33 34 36
38 38 39 40 41 42 42 42 42 42 43 42 42 40 39 39 40 39 38 37 37 37 37 37 36 33 31 30 30 30 30 30 30 31 32 32 32 32 33 34 35 34
40 40 40 40 41 42 42 42 42 43 43 44 44 43 41 39 39 39 38 37 37 36 36 36 34 32 29 29 29 28 28 28 29 31 32 32 32 32 33 33 32 31
40 41 41 41 42 42 43 43 42 42 43 43 43 43 42 41 39 39 39 38 36 36 35 34 33 30 28 28 27 26 26 27 29 31 32 32 31 31 31 32 32 31
40 41 41 42 42 43 43 44 44 43 42 42 42 42 42 42 41 40 39 37 36 34 33 32 31 29 27 26 25 25 26 27 29 31 32 31 29 29 30 32 33 33
Wind_Direction
274 272 271 269 267 265 265 265 264 265 264 265 267 268 271 273 273 272 270 269 268 266 266 265 263 262 261 261 262 261 260 258 257 257 257 258 258 256 257 258 255 253
276 274 270 265 262 261 261 263 264 264 262 263 264 264 266 268 269 270 269 269 268 266 266 266 266 265 263 261 261 260 260 256 255 257 258 258 258 257 260 261 258 257
279 276 271 265 261 259 260 261 259 258 258 258 259 260 262 264 266 267 267 267 267 266 266 266 266 266 266 264 262 260 259 255 252 253 256 259 258 257 261 263 258 257
281 276 271 265 260 258 257 256 253 252 255 255 258 261 262 263 264 265 267 267 268 268 267 266 266 266 266 265 264 263 263 260 254 249 251 258 258 258 262 259 253 256
289 281 272 264 260 259 256 254 252 253 255 256 258 262 263 264 265 265 266 267 268 269 269 269 269 268 267 266 266 267 266 266 260 250 248 252 255 259 261 256 255 264
303 290 279 270 264 262 259 257 257 258 258 257 259 261 263 264 265 266 267 268 269 270 270 271 272 272 272 271 271 272 269 267 264 255 247 248 252 257 259 259 263 268
314 303 291 281 274 268 264 262 262 262 261 261 262 262 265 266 267 267 268 269 270 271 271 272 273 274 276 277 276 277 275 271 267 260 251 248 250 255 258 260 264 265
313 310 301 291 283 277 272 269 267 266 265 265 263 263 265 267 267 268 268 269 270 271 272 273 274 276 276 277 278 280 279 276 272 266 258 251 250 252 255 258 262 264
306 310 306 297 289 283 279 276 275 274 273 272 270 269 270 270 270 270 269 269 270 271 273 274 275 276 277 277 279 280 281 280 277 273 266 257 252 251 252 256 260 263
302 305 305 302 297 289 282 280 280 281 281 282 281 280 279 278 278 277 275 273 272 272 273 274 275 276 277 278 279 280 281 281 279 277 271 262 256 253 254 255 257 260
300 301 302 304 304 300 293 286 283 284 285 285 286 285 284 284 283 282 280 278 277 276 275 275 276 276 276 278 279 279 280 281 280 278 273 265 257 253 254 256 258 260
305 303 301 300 300 300 298 293 288 286 286 286 287 287 286 285 283 282 280 280 279 278 278 277 276 276 275 277 278 277 278 279 279 278 274 267 259 254 253 255 258 259
315 312 307 303 299 296 294 291 289 287 285 285 285 285 284 284 283 281 279 278 278 277 277 278 276 275 275 276 277 277 277 277 279 278 275 268 261 254 252 254 257 258
320 320 317 312 308 302 297 293 290 287 285 284 282 281 281 282 283 282 279 276 275 275 276 276 276 275 275 277 277 277 277 277 278 278 274 267 259 253 251 253 255 257
322 321 319 316 314 311 306 300 294 291 288 286 283 282 282 282 283 284 282 278 275 274 274 275 276 276 276 277 277 276 276 277 277 276 272 265 256 252 251 252 254 255
321 319 317 316 316 315 311 306 301 297 293 289 286 285 284 284 284 285 284 281 278 276 274 274 275 277 277 277 276 275 275 275 275 274 271 264 256 252 250 251 254 255
318 317 316 316 316 316 313 310 306 302 300 297 293 291 288 287 285 284 284 284 281 278 276 275 276 277 276 275 274 273 272 273 273 273 270 264 257 253 252 251 253 256
312 312 312 313 313 313 312 311 308 305 304 303 299 296 293 290 288 286 285 284 282 279 277 276 276 276 276 274 273 272 271 271 272 271 269 264 257 253 253 254 256 258
307 306 307 307 308 308 308 308 307 306 306 305 302 298 294 291 291 290 288 285 283 280 278 277 277 276 275 273 272 271 269 269 269 269 267 263 257 253 252 256 259 261
306 303 303 303 303 304 303 303 304 304 303 303 302 298 294 291 290 290 289 286 283 281 280 278 277 276 275 273 271 269 267 266 267 266 264 260 254 251 252 255 257 259
310 306 304 302 301 299 299 299 299 300 300 300 300 298 295 293 290 289 289 287 285 282 281 279 278 277 274 271 269 267 265 265 265 264 262 257 252 251 253 255 256 259
315 312 308 305 303 300 298 297 297 297 299 299 299 297 295 293 291 289 288 287 285 282 279 278 277 275 273 269 267 265 263 263 262 259 257 254 251 250 252 254 255 258
316 315 312 310 307 303 300 299 298 299 300 301 300 297 295 293 292 291 289 287 284 281 279 277 276 273 270 268 265 263 262 262 258 254 254 253 251 251 252 255 257 257
316 315 314 312 309 306 302 299 298 298 299 300 301 299 297 295 292 291 288 286 284 282 279 277 275 272 268 264 261 260 261 259 255 253 253 253 252 253 254 256 256 254
316 315 314 313 311 309 304 300 298 297 297 298 299 299 298 295 292 289 287 286 283 281 278 275 273 270 265 261 259 258 257 256 253 251 251 251 252 254 255 253 250 249
315 314 313 312 312 311 308 304 300 297 297 297 297 297 297 295 293 290 287 285 282 279 276 273 270 267 263 260 259 256 253 251 250 249 249 250 252 253 253 251 249 250
Height
1515 1515 1515 1514 1514 1514 1514 1515 1515 1515 1515 1515 1515 1515 1516 1517 1517 1517 1517 1517 1517 1517 1517 1517 1517 1516 1516 1516 1516 1516 1516 1515 1514 1514 1515 1514 1514 1514 1514 1513 1512 1514
1513 1513 1513 1512 1512 1512 1512 1512 1512 1512 1512 1513 1513 1513 1513 1513 1514 1514 1514 1514 1514 1513 1513 1513 1512 1512 1511 1511 1511 1511 1510 1509 1509 1509 1509 1508 1509 1509 1509 1509 1509 1511
1511 1511 1511 1511 1510 1510 1510 1510 1510 1510 1510 1510 1510 1510 1510 1510 1510 1510 1510 1510 1510 1509 1509 1509 1509 1508 1508 1507 1507 1505 1504 1504 1503 1504 1504 1504 1504 1505 1504 1505 1505 1506
1510 1510 1509 1509 1509 1509 1508 1508 1508 1508 1508 1508 1508 1508 1508 1508 1507 1507 1507 1506 1506 1506 1505 1505 1505 1504 1504 1503 1502 1501 1500 1499 1498 1500 1500 1500 1500 1500 1500 1500 1500 1501
1508 1508 1508 1508 1507 1507 1507 1506 1506 1506 1505 1505 1505 1505 1505 1504 1504 1503 1503 1503 1502 1502 1502 1501 1501 1500 1500 1500 1498 1497 1496 1495 1494 1495 1496 1496 1496 1496 1496 1497 1497 1497
1506 1506 1506 1506 1506 1505 1505 1504 1504 1503 1503 1503 1502 1502 1502 1501 1501 1500 1500 1500 1499 1498 1498 1497 1496 1496 1496 1495 1494 1493 1492 1491 1490 1490 1490 1491 1492 1493 1493 1494 1493 1493
1504 1504 1503 1503 1504 1503 1503 1502 1502 1501 1501 1500 1500 1500 1500 1498 1498 1498 1497 1496 1496 1495 1494 1493 1493 1492 1492 1491 1490 1488 1488 1487 1487 1486 1486 1486 1488 1488 1489 1490 1489 1489
1501 1501 1501 1500 1500 1500 1500 1500 1499 1499 1498 1497 1497 1497 1497 1495 1495 1494 1493 1493 1492 1491 1490 1489 1489 1488 1487 1487 1485 1484 1483 1483 1483 1482 1481 1482 1482 1483 1484 1485 1486 1485
1499 1498 1498 1497 1497 1497 1497 1497 1496 1496 1495 1495 1494 1494 1493 1492 1492 1491 1490 1489 1488 1487 1486 1485 1485 1484 1483 1483 1482 1480 1479 1479 1478 1478 1477 1476 1477 1477 1479 1481 1481 1481
1497 1496 1495 1494 1493 1493 1492 1493 1493 1492 1492 1491 1491 1490 1490 1489 1489 1488 1486 1485 1484 1483 1482 1481 1481 1480 1479 1479 1478 1476 1475 1474 1474 1473 1472 1472 1472 1472 1474 1475 1476 1476
1495 1494 1493 1492 1491 1490 1489 1489 1488 1488 1487 1487 1487 1486 1485 1485 1485 1484 1482 1481 1480 1479 1478 1477 1476 1476 1475 1474 1473 1472 1471 1470 1469 1468 1468 1467 1467 1468 1469 1470 1471 1471
1493 1492 1491 1489 1488 1487 1486 1485 1484 1484 1483 1483 1482 1481 1480 1480 1479 1478 1477 1476 1475 1474 1473 1473 1472 1471 1470 1469 1469 1468 1467 1466 1465 1464 1463 1463 1463 1463 1464 1465 1466 1466
1491 1490 1488 1487 1485 1484 1483 1482 1481 1480 1479 1478 1477 1476 1475 1474 1473 1473 1472 1470 1470 1469 1468 1468 1467 1466 1465 1464 1463 1463 1462 1461 1460 1459 1458 1458 1458 1459 1460 1460 1461 1461
1488 1487 1486 1484 1482 1481 1480 1478 1477 1476 1475 1474 1472 1471 1470 1469 1468 1467 1466 1465 1464 1463 1462 1462 1461 1460 1460 1459 1458 1457 1456 1456 1455 1454 1454 1453 1453 1454 1455 1455 1455 1456
1485 1483 1482 1480 1478 1477 1476 1475 1473 1472 1470 1469 1467 1466 1465 1464 1462 1461 1460 1459 1458 1458 1457 1456 1455 1455 1455 1454 1453 1452 1451 1450 1450 1449 1449 1448 1449 1449 1450 1450 1451 1451
1481 1479 1477 1476 1474 1473 1471 1470 1468 1467 1465 1464 1463 1462 1460 1459 1457 1455 1454 1454 1453 1453 1452 1451 1450 1450 1451 1450 1449 1448 1446 1445 1445 1444 1444 1444 1444 1444 1445 1445 1446 1447
1476 1474 1473 1471 1470 1469 1467 1465 1463 1461 1460 1459 1458 1457 1455 1454 1452 1450 1449 1448 1448 1447 1447 1446 1446 1446 1447 1446 1445 1444 1443 1441 1440 1440 1439 1439 1439 1439 1440 1441 1442 1443
1473 1471 1469 1468 1467 1465 1463 1461 1459 1457 1456 1454 1453 1451 1450 1448 1446 1445 1444 1443 1443 1442 1441 1441 1441 1442 1442 1442 1441 1440 1439 1437 1436 1435 1434 1434 1435 1435 1436 1437 1438 1439
1471 1469 1466 1464 1463 1462 1460 1458 1456 1455 1453 1451 1449 1447 1445 1443 1442 1440 1439 1438 1437 1436 1436 1436 1436 1436 1437 1437 1436 1435 1435 1433 1432 1431 1430 1430 1431 1432 1433 1434 1435 1435
1469 1466 1464 1462 1460 1458 1456 1454 1452 1451 1449 1448 1446 1443 1441 1439 1438 1436 1435 1434 1432 1432 1431 1430 1430 1431 1432 1432 1431 1431 1430 1429 1428 1426 1426 1426 1427 1428 1429 1430 1431 1432
1466 1463 1461 1459 1457 1455 1453 1451 1449 1447 1445 1443 1441 1439 1437 1435 1433 1432 1431 1429 1428 1428 1427 1426 1426 1427 1427 1427 1426 1426 1425 1425 1423 1423 1422 1423 1423 1424 1425 1426 1427 1428
1462 1460 1457 1455 1453 1451 1448 1447 1445 1442 1440 1438 1436 1434 1432 1430 1428 1427 1426 1425 1424 1423 1422 1421 1421 1422 1422 1422 1421 1421 1421 1420 1419 1419 1419 1419 1420 1421 1422 1423 1423 1424
1459 1456 1453 1451 1448 1446 1444 1442 1440 1437 1436 1434 1431 1428 1427 1425 1423 1422 1421 1420 1419 1418 1417 1416 1416 1417 1417 1417 1416 1416 1416 1416 1415 1415 1415 1416 1417 1418 1418 1419 1419 1420
1456 1453 1450 1448 1445 1443 1440 1438 1435 1433 1431 1429 1427 1424 1422 1420 1419 1417 1416 1415 1414 1413 1413 1412 1411 1412 1412 1412 1411 1412 1412 1411 1411 1412 1412 1412 1413 1414 1414 1415 1416 1417
1453 1451 1448 1445 1442 1440 1437 1434 1432 1429 1427 1425 1423 1420 1418 1416 1415 1412 1411 1410 1409 1409 1408 1407 1407 1407 1408 1407 1407 1408 1408 1408 1408 1407 1407 1408 1409 1410 1410 1411 1411 1412
1450 1447 1444 1442 1439 1436 1433 1431 1428 1425 1423 1420 1418 1416 1414 1412 1410 1408 1407 1406 1405 1405 1404 1403 1403 1403 1403 1404 1404 1404 1404 1404 1403 1403 1403 1405 1406 1406 1406 1407 1407 1408